Flag for Romania Weather past 2 weeks in Brăila, Romania

Now
33 °F

Overcast.


Feels Like: 33 °F
Forecast: 31 / 36 °F
Wind: No wind

Location: Galati

Current Time: Jan 27, 2015 at 5:37:40 AM

Latest Report: Jan 27, 2015 at 5:00 AM


Visibility: 6 mi

Pressure: 30.15 "Hg

Humidity: 96%

Dew point: 31 °F

Location of BrăilaLocation

Historic Weather in Brăila — Graph

°F

Brăila temperature yesterday

Maximum temperature yesterday: 38 °F (at 3:00 PM)
Minimum temperature yesterday: 33 °F (at 11:00 PM)
Average temperature yesterday: 35 °F

Past Weeks' High & Low Weather Summary

 TemperatureHumidityPressure
High46 °F (Jan 23, 3:00 PM)100% (Jan 12, 4:00 AM)30.36 "Hg (Jan 12, 4:00 AM)
Low25 °F (Jan 15, 6:00 AM)58% (Jan 14, 2:00 PM)29.89 "Hg (Jan 12, 4:00 AM)
Average33 °F96%30.12 "Hg
* Reported Jan 12 4:00 AM — Jan 27 4:00 AM, Brăila, Weather by CustomWeather, © 2014

Note: Actual official high and low records may vary slightly from our data, if they occured in-between our weather recording intervals... More about our weather records

Advertising

Brăila weather history for previous 24 hours

 ConditionsComfort  
Time TempWeatherWind HumidityBarometerVisibility
4:00 AM
Jan 27
33 °FOvercast.No wind95%30.16 "Hg6 mi
3:00 AM33 °FOvercast.No wind96%30.17 "Hg6 mi
2:00 AM33 °FOvercast.1 mph96%30.18 "Hg6 mi
1:00 AM33 °FOvercast.1 mph94%30.19 "Hg6 mi
12:00 AM33 °FOvercast.1 mph93%30.20 "Hg6 mi
11:00 PM
Jan 26
33 °FOvercast.1 mph93%30.22 "Hg6 mi
10:00 PM34 °FOvercast.1 mph90%30.23 "Hg6 mi
9:00 PM35 °FOvercast.1 mph89%30.22 "Hg6 mi
8:00 PM35 °FOvercast.2 mph90%30.22 "Hg6 mi
7:00 PM35 °FOvercast.2 mph86%30.21 "Hg6 mi
6:00 PM36 °FOvercast.2 mph85%30.20 "Hg6 mi
5:00 PM36 °FOvercast.2 mph85%30.19 "Hg6 mi
4:00 PM37 °FOvercast.5 mph84%30.18 "Hg6 mi
3:00 PM38 °FOvercast.3 mph84%30.17 "Hg6 mi
2:00 PM37 °FOvercast.3 mph88%30.18 "Hg6 mi
1:00 PM37 °FOvercast.3 mph89%30.19 "Hg6 mi
12:00 PM36 °FOvercast.5 mph92%30.19 "Hg6 mi
11:00 AM35 °FOvercast.3 mph96%30.19 "Hg6 mi
10:00 AM34 °FOvercast.3 mph99%30.18 "Hg6 mi
9:00 AM34 °FFog.2 mph100%30.17 "Hg2 mi
8:00 AM34 °FFog.2 mph100%30.15 "Hg2 mi
7:00 AM34 °FFog.3 mph100%30.12 "Hg2 mi
6:00 AM34 °FFog.3 mph100%30.11 "Hg2 mi
5:00 AM34 °FFog.2 mph100%30.10 "Hg2 mi
Weather by CustomWeather, © 2014

See weather overviewHow to use our weather pages